TEVEL2-8

Last updated on Tue Aug 25 2026 00:03:14 GMT+0000 (Coordinated Universal Time)

1 63239U 25052AF 26236.50155594 .00015011 00000+0 46589-3 0 9992 2 63239 97.3842 131.6142 0003732 255.1503 104.9327 15.33475254 80487
UTC large
Height (km)
Speed (km/s)
/
Latitude / Longitude
Inclination (degrees)
Orbital Period (minutes)
Azimuth
Elevation
Range (km)
Doppler Factor

Next 0 passes for location: London (51.5072 / 0.1276)

No passes found over London.
TEVEL2-8